Location: Bidart
(43.4376°N, 1.5913°W)
Time: 00:21:00
(UTC+00:00)

SPOT 3 Rocket - Pass Details

Date: 19 May 2025
Orbit: 775 x 790 km, 98.5° (Epoch: 18 June)

Event Time Altitude Azimuth Distance (km) Brightness Sun altitude
Exits shadow 21:43:36 32° 175° (S) 1,321 4.2 -19.0°
Maximum altitude 21:46:04 78° 257° (WSW) 800 3.6 -19.2°
Drops below altitude 10° 21:51:13 10° 344° (NNW) 2,334 7.1 -19.8°
Sets 21:53:33 0° 346° (NNW) 3,265 8.1 -20.0°
